TimeMDT,TemperatureF,Dew PointF,Humidity,Sea Level PressureIn,VisibilityMPH,Wind Direction,Wind SpeedMPH,Gust SpeedMPH,PrecipitationIn,Events,Conditions,WindDirDegrees,DateUTC
12:00 AM,31,21,56,,,SSE,17.3,,,,,160,2013-03-20 06:00:00
12:00 AM,30.7,21.2,68,-9999,-9999.0,SSE,17.3,-,N/A,,Unknown,160,2013-03-20 06:00:00
1:00 AM,29.5,20.8,70,-9999,-9999.0,SSE,15.0,-,N/A,,Unknown,150,2013-03-20 07:00:00
2:00 AM,27.9,21.4,77,-9999,-9999.0,SSE,11.5,-,N/A,,Unknown,150,2013-03-20 08:00:00
3:00 AM,31.8,19.8,61,-9999,-9999.0,South,13.8,-,N/A,,Unknown,170,2013-03-20 09:00:00
4:00 AM,31.6,20.3,63,-9999,-9999.0,SSE,12.7,-,N/A,,Unknown,160,2013-03-20 10:00:00
5:00 AM,32.0,20.1,62,-9999,-9999.0,SSE,13.8,-,N/A,,Unknown,160,2013-03-20 11:00:00
6:00 AM,31,20,52,,,South,13.8,,,,,170,2013-03-20 12:00:00
6:00 AM,31.5,20.1,63,-9999,-9999.0,South,13.8,-,N/A,,Unknown,170,2013-03-20 12:00:00
7:00 AM,30.7,20.1,65,-9999,-9999.0,SSE,13.8,-,N/A,,Unknown,160,2013-03-20 13:00:00
8:00 AM,30.4,20.8,68,-9999,-9999.0,South,15.0,-,N/A,,Unknown,170,2013-03-20 14:00:00
9:00 AM,31.5,21.6,67,-9999,-9999.0,South,15.0,-,N/A,,Unknown,170,2013-03-20 15:00:00
10:00 AM,35.1,22.1,59,-9999,-9999.0,South,15.0,-,N/A,,Unknown,170,2013-03-20 16:00:00
11:00 AM,37.8,23.7,57,-9999,-9999.0,South,16.1,-,N/A,,Unknown,170,2013-03-20 17:00:00
12:00 PM,44,26,36,,,SSE,15.0,,,,,160,2013-03-20 18:00:00
12:00 PM,44.1,26.1,49,-9999,-9999.0,SSE,15.0,-,N/A,,Unknown,160,2013-03-20 18:00:00
1:00 PM,53.8,31.5,43,-9999,-9999.0,South,11.5,-,N/A,,Unknown,180,2013-03-20 19:00:00
2:00 PM,58.3,33.3,39,-9999,-9999.0,SSW,20.7,-,N/A,,Unknown,200,2013-03-20 20:00:00
3:00 PM,59.9,33.8,38,-9999,-9999.0,SSW,21.9,-,N/A,,Unknown,210,2013-03-20 21:00:00
4:00 PM,59.9,31.5,34,-9999,-9999.0,SSW,24.2,-,N/A,,Unknown,210,2013-03-20 22:00:00
5:00 PM,59.2,33.4,38,-9999,-9999.0,SSW,21.9,-,N/A,,Unknown,210,2013-03-20 23:00:00
6:00 PM,57,34,29,,,SW,24.2,,,,,220,2013-03-21 00:00:00
6:00 PM,56.8,33.6,42,-9999,-9999.0,SW,24.2,-,N/A,,Unknown,220,2013-03-21 00:00:00
7:00 PM,52.7,33.3,48,-9999,-9999.0,SSW,18.4,-,N/A,,Unknown,210,2013-03-21 01:00:00
8:00 PM,44.2,32.0,62,-9999,-9999.0,South,11.5,-,N/A,,Unknown,180,2013-03-21 02:00:00
9:00 PM,41.2,31.3,68,-9999,-9999.0,SSW,12.7,-,N/A,,Unknown,210,2013-03-21 03:00:00
10:00 PM,39.9,32.9,76,-9999,-9999.0,SSW,18.4,-,N/A,,Unknown,200,2013-03-21 04:00:00
11:00 PM,39.7,33.1,77,-9999,-9999.0,SW,18.4,-,N/A,,Unknown,220,2013-03-21 05:00:00